Location: Tumbler Ridge
(55.1167°N, 121.0000°W)
Time: 16:36:35
(UTC-08:00)

Daily predictions for brighter satellites

Satellite Brightness Start Highest point End
(mag) Time Altitude Azimuth Time Altitude Azimuth Time Altitude Azimuth
Cosmos 968 Rocket 3.5 16:47:54 10° NNW 16:53:03 60° ENE 16:58:08 10° SE
SJ-12 4.1 16:50:05 10° SSE 16:54:09 81° WSW 16:58:15 10° NNW
SMAP 3.1 16:53:19 10° SSE 16:57:56 64° ENE 17:02:34 10° N
ATLAS 2AS CENTAUR R/B 3.7 16:49:59 10° NW 16:57:56 63° SW 17:05:21 10° SSE
Cosmos 2263 4.4 16:55:51 10° NW 17:01:42 87° WSW 17:07:27 10° SSE
Cosmos 2322 Rocket 4.0 16:58:35 10° NW 17:02:10 17° N 17:05:45 10° NNE
Cosmos 1300 3.3 17:02:58 10° N 17:06:31 34° ENE 17:10:02 10° SE
In-Cosmos 22 4.1 17:01:25 10° S 17:06:43 78° E 17:12:09 10° NNE
Cosmos 2369 Rocket 2.8 17:01:30 10° NW 17:07:07 65° WSW 17:12:43 10° SSE
GEOS 3 Rocket 4.0 17:02:34 10° E 17:07:44 49° NNE 17:12:55 10° NW
Cosmos 1110 Rocket 4.5 17:04:26 10° SW 17:09:34 61° WNW 17:14:44 10° NNE
NOSS 2-1 (E) 4.5 17:07:14 10° S 17:10:32 28° ESE 17:14:19 10° ENE
Cosmos 1656 Rocket 3.7 17:05:21 10° NNW 17:10:44 55° NE 17:16:08 10° SE
SL-8 Rocket 4.2 17:04:46 10° N 17:10:47 50° ENE 17:16:48 10° SE
CORIOLIS 4.1 17:07:58 10° SSE 17:13:18 76° ENE 17:18:40 10° NNW
Cosmos 1461 3.3 17:11:05 10° WSW 17:15:28 67° NW 17:20:06 10° NE
Cosmos 2218 Rocket 4.2 17:09:57 10° N 17:15:57 47° ENE 17:21:50 10° SE
COSMO-SKYMED 1 3.9 17:13:58 10° NE 17:17:16 21° E 17:20:32 10° SE
Cosmos 2219 Rocket 3.7 17:12:42 10° W 17:17:29 27° NNW 17:22:18 10° NNE
Cosmos 1943 Rocket 2.5 17:12:28 10° NW 17:18:06 75° WSW 17:23:40 10° SSE
Meteor 1-24 Rocket 4.0 17:14:15 10° SSW 17:20:03 84° WNW 17:26:05 10° NNE
ERS-2 3.3 17:17:45 10° ESE 17:20:44 23° ENE 17:23:43 10° N
NOSS 3-4 (A) 3.8 17:14:04 10° NW 17:20:54 84° NE 17:28:17 10° SE
NOSS 3-4 (C) 3.8 17:14:10 10° NW 17:21:00 83° NE 17:28:23 10° SE
SeaSat 1 4.0 17:16:57 10° S 17:21:38 42° WSW 17:26:20 10° NW
SL-14 R/B 4.4 17:18:57 10° SE 17:22:11 24° E 17:25:24 10° NE
IRAS Rocket 4.3 17:16:38 10° SSE 17:22:13 88° ENE 17:27:52 10° NNW
CSL-04 Rocket 3.9 17:16:39 10° SSE 17:22:13 79° WSW 17:27:45 10° NNW
NOAA 12 4.4 17:17:38 10° SE 17:22:32 42° ENE 17:27:29 10° N
Cosmos 2344 4.3 17:15:31 10° W 17:23:30 55° N 17:33:07 12° ENE
SL-16 R/B 4.0 17:20:03 10° NW 17:23:32 16° N 17:27:02 10° NE
Meteor 2-14 Rocket 4.4 17:19:43 10° N 17:25:53 80° ENE 17:31:59 10° SSE
Cosmos 2228 Rocket 4.3 17:22:52 10° N 17:26:28 22° ENE 17:30:04 10° ESE
Cosmos 1484 Rocket 3.2 17:22:44 10° S 17:26:29 63° WSW 17:30:13 10° NNW
CZ-4 R/B 1.5 17:25:45 10° SSE 17:30:00 86° ENE 17:34:17 10° NNW
Cosmos 1295 Rocket 4.5 17:24:31 10° N 17:30:40 86° E 17:36:49 10° S
SL-24 R/B - RUBIN 2 3.7 17:26:47 10° NW 17:31:36 82° SW 17:35:59 10° SE
Envisat 4.4 17:28:45 11° E 17:31:43 18° NE 17:35:01 10° N
Cosmos 1076 Rocket 4.2 17:27:54 10° SSE 17:31:51 34° E 17:35:49 10° NNE
NOSS 7 (E) 4.5 17:29:34 10° SW 17:32:50 61° SE 17:35:22 16° ENE
Cosmos 2360 Rocket 4.1 17:30:01 10° NW 17:33:43 17° N 17:37:25 10° NNE
NOSS 3-3 (A) 4.4 17:28:10 10° SSW 17:34:06 50° SE 17:39:58 13° NE
NOSS 3-3 (C) 4.4 17:28:17 10° SSW 17:34:13 49° SE 17:40:03 13° NE
Cosmos 1867 3.7 17:29:15 10° SW 17:34:43 82° NW 17:39:49 12° NE
Meteor 1-28 Rocket 3.3 17:32:13 10° NNE 17:36:02 59° E 17:39:48 10° S
RESURS DK-1 3.9 17:33:48 10° NNW 17:36:51 19° NNE 17:38:29 16° ENE
Cosmos 1980 Rocket 3.7 17:34:03 10° NNW 17:38:01 19° NNE 17:40:54 13° NE
MONITOR-E 4.4 17:37:10 10° SE 17:40:06 44° ENE 17:43:03 10° N
Cosmos 1328 Rocket 4.2 17:37:06 10° N 17:41:05 32° ENE 17:45:01 10° SE
Cosmos 1346 Rocket 3.3 17:39:14 10° N 17:42:54 35° ENE 17:46:31 10° SE
Cosmos 1726 2.6 17:39:16 10° NNW 17:42:55 64° W 17:46:34 10° S
ALOS 2.3 17:39:05 10° SSE 17:43:41 60° ENE 17:48:18 10° N
Cosmos 1241 Rocket 4.4 17:38:15 10° NW 17:44:29 72° NE 17:50:43 10° SE
Cosmos 2333 Rocket 3.9 17:40:04 10° W 17:44:45 25° NNW 17:49:26 10° NNE
USA 161 2.7 17:43:05 10° N 17:45:14 31° WNW 17:47:13 10° SW
Meteor 1-27 4.5 17:41:31 10° N 17:47:00 46° ENE 17:52:30 10° SE
FENGYUN 3A 3.6 17:42:38 10° SSE 17:47:57 67° ENE 17:53:17 10° NNW
Cosmos 1315 Rocket 3.6 17:46:28 10° SSE 17:49:54 30° E 17:52:09 17° NE
Cosmos 2366 rocket 3.9 17:46:44 10° N 17:53:01 72° ENE 17:59:13 10° SSE
KORONAS-FOTON 3.8 17:51:21 10° SSW 17:55:08 84° W 17:58:58 10° N
ATLAS 5 CENTAUR R/B 3.0 17:50:41 10° WNW 17:55:23 36° N 17:59:05 17° NE
Ariane Rocket 4.0 17:51:49 10° S 17:56:44 50° W 18:01:42 10° NNW
Cosmos 1821 Rocket 4.5 17:53:19 10° N 17:58:55 35° ENE 18:04:30 10° SE
H-2A R/B 3.2 17:56:29 10° SE 18:00:04 39° ENE 18:03:43 10° N
NOSS 7 (H) 4.4 17:58:20 10° SW 18:01:37 69° SE 18:03:18 28° ENE
Cosmos 1766 Rocket 4.0 17:58:09 10° SSE 18:02:10 39° E 18:05:43 13° NNE
Cosmos 1455 2.7 18:01:06 10° N 18:04:42 35° ENE 18:08:16 10° SE
SKYMED 2 3.7 18:01:27 10° NNE 18:05:43 51° E 18:09:57 10° S
Okean 3 Rocket 3.5 18:02:32 10° S 18:07:03 72° E 18:11:34 10° NNE
SL-16 R/B 3.4 18:01:54 10° WSW 18:07:09 36° NW 18:12:26 10° NNE
Cosmos 909 Rocket 4.2 17:59:57 10° NW 18:07:30 80° NE 18:13:53 10° SE
Cosmos 2369 4.4 18:02:43 10° NNW 18:07:58 35° NE 18:10:34 24° E
ERBS 2.2 18:06:49 10° WNW 18:10:14 88° S 18:11:40 32° ESE
USA 215 3.3 18:07:51 21° ENE 18:12:27 79° N 18:19:00 10° W
CZ-2C R/B 3.7 18:07:51 10° NNE 18:12:39 78° ESE 18:17:20 10° SSW
Cosmos 1777 Rocket 4.1 18:07:44 10° NNW 18:13:00 80° WSW 18:18:16 10° SSE
SPOT 3 Rocket 3.5 18:08:06 10° SSE 18:13:16 86° ENE 18:18:29 10° NNW
FengYun 1-2 T 4.2 18:08:47 10° SE 18:14:19 60° ENE 18:19:49 10° NNW
Meteor 1-21 Rocket 4.4 18:10:20 10° SSW 18:16:16 81° WNW 18:22:15 10° NNE
Lacrosse 4 Rocket 3.2 18:13:13 10° W 18:16:32 23° NNW 18:19:06 14° NNE
Cosmos 1328 3.9 18:12:52 10° S 18:16:48 54° E 18:19:36 18° NNE
Cosmos 1943 3.2 18:13:09 10° SSW 18:18:48 88° WNW 18:23:21 16° NNE
Cosmos 1400 Rocket 2.9 18:14:45 10° SSW 18:18:51 79° WNW 18:23:01 10° NNE
Nadezhda 3 Rocket 4.5 18:13:13 10° SSE 18:18:56 37° E 18:24:43 10° NNE
Cosmos 1151 Rocket 3.3 18:14:43 10° N 18:18:58 46° ENE 18:23:12 10° SE
EO 1 Del DPAF 3.6 18:18:48 35° ENE 18:19:47 42° E 18:23:26 10° S
YAOGAN 1 3.7 18:16:20 10° S 18:20:30 46° W 18:24:43 10° NNW
Cosmos 1603 4.2 18:14:53 10° SW 18:20:34 59° NW 18:25:40 13° NNE
Cosmos 1674 4.3 18:18:05 10° SW 18:21:32 34° WNW 18:25:00 10° N
Spot 2 Rocket 4.5 18:25:40 26° NE 18:25:40 26° NE 18:29:29 10° N
Cosmos 1697 Rocket 3.5 18:20:25 10° NNW 18:25:24 31° NE 18:26:37 28° ENE
MTI 3.6 18:26:28 51° NE 18:27:06 69° ESE 18:30:18 10° S
Cosmos 1992 Rocket 4.2 18:22:05 10° SW 18:27:17 70° WNW 18:31:52 14° NNE
Landsat 4 3.6 18:25:47 29° NNE 18:27:33 65° ESE 18:31:16 10° S
Cosmos 44 3.9 18:24:19 10° S 18:28:04 30° ESE 18:28:04 30° ESE
Cosmos 2237 Rocket 4.1 18:24:46 10° WNW 18:29:02 21° NNW 18:33:01 11° NNE
Geosat 4.0 18:26:32 18° NNE 18:30:19 84° NW 18:35:22 10° SW
NOSS 2-1 (C) 3.5 18:27:49 10° SW 18:31:40 79° NW 18:33:29 35° NE
NOSS 2-1 (D) 3.5 18:28:29 10° WSW 18:32:20 77° NW 18:34:09 35° NE
Cosmos 1656 4.1 18:27:35 10° NNW 18:32:43 39° NE 18:33:57 35° ENE
Cosmos 1626 2.0 18:32:10 10° S 18:35:50 61° E 18:36:13 57° ENE
Cosmos 1934 Rocket 4.2 18:32:36 10° N 18:38:44 48° ENE 18:44:52 10° SE
Cosmos 1605 Rocket 4.4 18:35:43 10° N 18:41:24 36° ENE 18:42:02 36° E
Iridium 96 4.2 18:40:31 45° N 18:41:26 79° E 18:45:11 10° S
Cosmos 1703 3.9 18:38:04 10° S 18:40:52 38° SE 18:40:52 38° SE
Cosmos 1898 Rocket 3.6 18:36:58 10° NNW 18:42:13 52° NE 18:43:42 40° ESE
Cosmos 2098 Rocket 3.5 18:38:13 10° NNW 18:42:58 85° W 18:49:01 10° S
GEOS 3 Rocket 4.0 18:40:34 11° SE 18:45:40 66° SW 18:51:05 10° NW
Cosmos 2058 4.2 18:42:21 10° SSE 18:44:30 27° SSE 18:44:30 27° SSE
Cosmos 1515 Rocket 3.4 18:42:04 10° N 18:46:27 85° ENE 18:50:48 10° SSE
Cosmos 2322 Rocket 3.7 18:44:20 10° NNW 18:48:29 20° NNE 18:48:58 20° NNE
Resurs 01 Rocket 2.9 18:51:52 27° NNE 18:51:52 27° NNE 18:54:11 10° N
SJ-6B 2.9 18:51:20 55° NNE 18:51:20 55° NNE 18:54:25 10° N
COSMO-SKYMED 1 3.0 18:49:41 11° N 18:53:50 63° WNW 18:58:07 10° SSW
Cosmos 1408 Rocket 3.5 18:49:37 10° SSW 18:53:55 83° W 18:56:36 23° N
ERS-2 3.3 18:50:39 10° S 18:54:11 45° W 18:57:46 10° NNW
Cosmos 2239 Rocket 4.3 18:48:43 10° N 18:54:53 73° ENE 19:01:01 10° SSE
Cosmos 1340 4.1 18:51:57 10° N 18:53:45 26° N 18:53:45 26° N
SJ 16-02 3.6 18:54:58 10° N 18:55:45 13° N 18:55:45 13° N
Cosmos 44 Rocket 3.8 18:53:59 10° SSW 18:57:44 40° SSE 18:57:44 40° SSE
DMSP B5D1-3 4.4 18:55:01 14° NNE 18:59:25 87° ESE 19:04:31 10° SSW
Cosmos 2151 4.3 18:56:24 10° S 18:58:31 28° SSE 18:58:31 28° SSE
NOSS 2-1 (E) 3.9 18:56:48 10° WSW 19:00:44 60° NNW 19:01:42 47° NNE
Meteor 2-10 Rocket 3.8 18:57:41 10° N 19:01:48 44° NE 19:01:48 44° NE
Cosmos 990 Rocket 4.1 18:58:11 10° NNW 19:03:19 53° NE 19:03:19 53° NE
Cosmos 2219 Rocket 4.2 18:59:54 10° NW 19:03:27 16° N 19:05:20 14° NNE
Cosmos 2228 Rocket 3.5 19:00:35 10° NNW 19:05:08 64° W 19:09:40 10° S
SL-16 R/B 3.6 19:05:21 10° NNW 19:09:26 23° NNE 19:09:26 23° NNE
Envisat 2.8 19:08:56 55° SE 19:09:59 74° ENE 19:15:05 10° NNW
RESURS DK-1 3.1 19:11:28 10° NNW 19:14:26 44° NNW 19:14:26 44° NNW
Cosmos 2360 Rocket 3.9 19:16:05 10° NNW 19:19:53 19° NNE 19:19:53 19° NNE
Cosmos 1743 Rocket 4.3 19:16:35 10° SSW 19:19:32 43° SSW 19:19:32 43° SSW
Cosmos 1980 Rocket 2.9 19:18:13 10° NNW 19:22:40 38° NNE 19:22:40 38° NNE
NOSS 3-3 (A) 4.4 19:18:37 10° WSW 19:24:58 64° NNW 19:27:26 40° NE
NOSS 3-3 (C) 4.4 19:18:43 10° WSW 19:25:04 64° NNW 19:27:31 41° NE
Cosmos 2298 Rocket 4.1 19:20:43 10° NNW 19:25:28 65° NNE 19:25:28 65° NNE
Cosmos 1315 Rocket 4.4 19:22:51 10° SW 19:26:26 33° WNW 19:27:55 25° NNW
Meteor 2-15 4.3 19:23:28 10° S 19:29:35 79° E 19:35:42 10° NNE
Cosmos 2333 Rocket 4.2 19:27:30 10° NW 19:31:09 17° N 19:32:06 16° N
Cosmos 1937 Rocket 3.6 19:32:07 10° NNW 19:36:46 70° NNW 19:36:46 70° NNW
Cosmos 2278 3.6 19:32:53 10° NW 19:38:36 89° NW 19:38:36 89° NW
Cosmos 2344 4.3 19:30:59 10° WNW 19:39:51 62° NNE 19:43:09 47° ENE
Cosmos 1455 4.3 19:36:58 10° NNW 19:40:17 27° W 19:43:34 10° SSW
ATLAS 5 CENTAUR R/B 2.9 19:36:06 10° NW 19:40:38 41° N 19:40:38 41° N
H-2A R/B 4.4 19:48:27 12° N 19:48:27 12° N 19:48:54 10° N
COSMOS 2406 3.7 19:43:47 10° SSW 19:47:56 50° SSW 19:47:56 50° SSW
Cosmos 2369 3.8 19:46:55 10° NW 19:52:32 71° WSW 19:52:32 71° WSW
SL-16 R/B 4.2 19:49:09 10° WNW 19:52:59 18° NNW 19:54:23 17° N
Meteor 2-17 Rocket 4.5 19:48:22 10° NNW 19:53:42 70° NNW 19:53:42 70° NNW
USA 215 3.1 19:55:11 82° ENE 19:55:27 84° NNE 20:02:01 10° WNW
Lacrosse 4 Rocket 4.1 19:54:28 10° NW 19:55:26 12° NNW 19:55:26 12° NNW
Cosmos 1697 Rocket 3.4 20:04:21 10° NW 20:08:22 48° NW 20:08:22 48° NW
Cosmos 2237 Rocket 4.3 20:11:51 10° NW 20:14:51 16° N 20:14:51 16° N
Resurs 01 Rocket 4.2 20:29:26 17° NW 20:29:26 17° NW 20:30:40 10° NNW
Cosmos 2322 Rocket 4.0 20:28:28 10° NNW 20:30:47 24° NNW 20:30:47 24° NNW
Cosmos 2219 Rocket 4.5 20:45:24 10° NNW 20:47:04 16° NNW 20:47:04 16° NNW
SL-16 R/B 4.2 20:49:26 10° NNW 20:51:18 21° NNW 20:51:18 21° NNW
Cosmos 1980 Rocket 4.2 21:02:19 10° NW 21:04:27 23° NW 21:04:27 23° NW
